TimeAKST,TemperatureF,Dew PointF,Humidity,Sea Level PressureIn,VisibilityMPH,Wind Direction,Wind SpeedMPH,Gust SpeedMPH,PrecipitationIn,Events,Conditions,WindDirDegrees,DateUTC
12:53 AM,-29.9,-9999,N/A,30.23,7.0,North,-9999.0,-,N/A,,Clear,0,2013-02-21 09:53:00
1:53 AM,-31.0,-9999,N/A,30.22,7.0,North,-9999.0,-,N/A,,Clear,0,2013-02-21 10:53:00
2:53 AM,-31.0,-9999,N/A,30.22,7.0,North,-9999.0,-,N/A,,Unknown,0,2013-02-21 11:53:00
3:53 AM,-32.1,-9999,N/A,30.22,6.0,NE,10.4,-,N/A,,Haze,40,2013-02-21 12:53:00
4:53 AM,-32.1,-9999,N/A,30.21,5.0,NE,12.7,-,N/A,,Haze,40,2013-02-21 13:53:00
5:41 AM,-32.8,-9999,N/A,30.20,6.0,North,-9999.0,-,N/A,,Haze,0,2013-02-21 14:41:00
5:53 AM,-33.0,-9999,N/A,30.20,-9999.0,North,-9999.0,-,N/A,,Mostly Cloudy,0,2013-02-21 14:53:00
6:00 AM,-32.8,-9999,N/A,30.20,-9999.0,North,-9999.0,-,N/A,,Unknown,0,2013-02-21 15:00:00
6:53 AM,-9999,-9999,N/A,30.20,-9999.0,NE,15.0,31.1,N/A,,Unknown,40,2013-02-21 15:53:00
7:24 AM,-32.8,-9999,N/A,30.19,4.0,NE,16.1,-,N/A,,Haze,40,2013-02-21 16:24:00
7:53 AM,-32.1,-9999,N/A,30.19,3.0,NE,13.8,-,N/A,,Mostly Cloudy,40,2013-02-21 16:53:00
8:43 AM,-32.8,-9999,N/A,30.18,5.0,NE,13.8,-,N/A,,Haze,40,2013-02-21 17:43:00
8:53 AM,-33.0,-9999,N/A,30.19,5.0,NE,12.7,-,N/A,,Haze,40,2013-02-21 17:53:00
9:13 AM,-32.8,-9999,N/A,30.18,3.0,NE,16.1,-,N/A,,Mostly Cloudy,40,2013-02-21 18:13:00
9:20 AM,-32.8,-9999,N/A,30.18,2.5,NE,15.0,-,N/A,,Mostly Cloudy,40,2013-02-21 18:20:00
9:48 AM,-32.8,-9999,N/A,30.18,3.0,NE,16.1,-,N/A,,Mostly Cloudy,40,2013-02-21 18:48:00
9:53 AM,-32.1,-9999,N/A,30.18,2.5,NE,15.0,-,N/A,,Mostly Cloudy,40,2013-02-21 18:53:00
10:31 AM,-31.0,-9999,N/A,30.17,1.8,NE,16.1,-,N/A,,Overcast,40,2013-02-21 19:31:00
10:53 AM,-31.0,-9999,N/A,30.18,1.8,NE,16.1,-,N/A,,Overcast,40,2013-02-21 19:53:00
11:04 AM,-31.0,-9999,N/A,30.17,2.0,NE,17.3,-,N/A,,Overcast,40,2013-02-21 20:04:00
11:53 AM,-31.0,-9999,N/A,30.17,2.5,NE,17.3,-,N/A,,Overcast,40,2013-02-21 20:53:00
12:13 PM,-31.0,-9999,N/A,30.16,3.0,NE,18.4,-,N/A,,Overcast,40,2013-02-21 21:13:00
12:21 PM,-31.0,-9999,N/A,30.16,2.5,NE,18.4,-,N/A,,Overcast,40,2013-02-21 21:21:00
12:42 PM,-31.0,-9999,N/A,30.16,2.5,NE,17.3,-,N/A,,Scattered Clouds,40,2013-02-21 21:42:00
12:53 PM,-29.9,-9999,N/A,30.16,3.0,NE,16.1,-,N/A,,Clear,40,2013-02-21 21:53:00
1:13 PM,-29.2,-9999,N/A,30.15,2.5,NE,17.3,-,N/A,,Clear,40,2013-02-21 22:13:00
1:24 PM,-29.2,-34.6,75,30.15,3.0,NE,16.1,-,N/A,,Haze,40,2013-02-21 22:24:00
1:49 PM,-29.2,-34.6,75,30.14,2.5,NNE,12.7,-,N/A,,Haze,30,2013-02-21 22:49:00
1:53 PM,-29.0,-34.1,77,30.14,2.5,NNE,13.8,-,N/A,,Haze,30,2013-02-21 22:53:00
2:03 PM,-29.2,-34.6,75,30.13,1.5,NNE,13.8,-,N/A,,Haze,30,2013-02-21 23:03:00
2:10 PM,-27.4,-34.6,69,30.13,1.2,NE,13.8,-,N/A,,Haze,40,2013-02-21 23:10:00
2:53 PM,-27.9,-33.0,77,30.14,0.8,NE,17.3,-,N/A,,Haze,40,2013-02-21 23:53:00
4:05 PM,-29.2,-34.6,75,30.13,0.5,NE,18.4,-,N/A,,Haze,50,2013-02-22 01:05:00
4:25 PM,-29.2,-34.6,75,30.13,0.8,NE,17.3,-,N/A,,Haze,50,2013-02-22 01:25:00
4:45 PM,-29.2,-9999,N/A,30.13,1.0,NE,13.8,-,N/A,,Overcast,50,2013-02-22 01:45:00
4:53 PM,-29.9,-9999,N/A,30.14,1.2,NE,15.0,-,N/A,,Overcast,50,2013-02-22 01:53:00
5:53 PM,-29.9,-9999,N/A,30.13,1.2,NE,13.8,-,N/A,,Overcast,50,2013-02-22 02:53:00
6:19 PM,-29.2,-9999,N/A,30.12,2.5,NE,15.0,-,N/A,,Overcast,50,2013-02-22 03:19:00
6:31 PM,-29.2,-9999,N/A,30.12,2.5,NE,13.8,-,N/A,,Overcast,50,2013-02-22 03:31:00
6:53 PM,-29.9,-9999,N/A,30.12,2.0,NE,13.8,-,N/A,,Overcast,50,2013-02-22 03:53:00
7:30 PM,-29.2,-34.6,75,30.12,1.8,NE,18.4,-,N/A,,Haze,40,2013-02-22 04:30:00
7:40 PM,-29.2,-34.6,75,30.12,2.0,NE,16.1,-,N/A,,Haze,50,2013-02-22 04:40:00
7:53 PM,-29.0,-34.1,77,30.12,2.0,NE,17.3,-,N/A,,Haze,50,2013-02-22 04:53:00
8:03 PM,-29.2,-34.6,75,30.12,1.5,NE,17.3,-,N/A,,Haze,40,2013-02-22 05:03:00
8:21 PM,-29.2,-34.6,75,30.11,1.8,NE,18.4,-,N/A,,Haze,40,2013-02-22 05:21:00
8:53 PM,-29.0,-34.1,77,30.12,1.8,NE,19.6,-,N/A,,Haze,50,2013-02-22 05:53:00
9:35 PM,-29.2,-34.6,75,30.10,1.8,NE,21.9,-,N/A,,Haze,40,2013-02-22 06:35:00
9:53 PM,-29.0,-34.1,77,30.11,1.2,NE,19.6,-,N/A,,Haze,40,2013-02-22 06:53:00
10:04 PM,-29.2,-34.6,75,30.10,1.2,NE,21.9,-,N/A,,Haze,50,2013-02-22 07:04:00
10:25 PM,-27.4,-32.8,75,30.10,1.2,NE,17.3,-,N/A,,Haze,50,2013-02-22 07:25:00
10:53 PM,-27.9,-33.0,77,30.11,1.0,NE,19.6,-,N/A,,Haze,50,2013-02-22 07:53:00
11:21 PM,-27.4,-32.8,75,30.10,0.8,NE,21.9,-,N/A,,Haze,50,2013-02-22 08:21:00
11:29 PM,-27.4,-32.8,75,30.10,1.0,NE,23.0,-,N/A,,Haze,50,2013-02-22 08:29:00
11:53 PM,-27.9,-33.0,77,30.11,0.8,NE,21.9,-,N/A,,Haze,50,2013-02-22 08:53:00